EST,Max TemperatureF,Mean TemperatureF,Min TemperatureF,Max Dew PointF,MeanDew PointF,Min DewpointF,Max Humidity, Mean Humidity, Min Humidity, Max Sea Level PressureIn, Mean Sea Level PressureIn, Min Sea Level PressureIn, Max VisibilityMiles, Mean VisibilityMiles, Min VisibilityMiles, Max Wind SpeedMPH, Mean Wind SpeedMPH, Max Gust SpeedMPH,PrecipitationIn, CloudCover, Events, WindDirDegrees
2013-11-1,65,56,47,58,49,41,84,66,48,29.71,29.59,29.43,10,9,2,39,13,54,0.20,5,Rain,237
2013-11-2,57,50,42,43,40,39,89,74,59,29.90,29.76,29.67,10,10,10,22,9,27,T,6,Rain,268
2013-11-3,49,40,30,40,31,23,92,67,42,30.48,30.20,29.91,10,10,5,17,10,22,0.03,4,Rain,340
2013-11-4,42,33,23,23,21,19,88,65,41,30.63,30.58,30.51,10,10,9,10,4,14,0.00,0,,117
2013-11-5,51,42,32,39,28,22,83,60,36,30.61,30.54,30.43,10,10,10,13,5,18,0.00,0,,197
2013-11-6,65,53,41,49,46,39,89,71,52,30.42,30.22,29.96,10,10,10,16,9,22,0.00,4,,190
2013-11-7,60,49,37,52,40,23,93,72,50,30.11,29.97,29.87,10,10,5,25,12,33,0.16,8,Rain,290
2013-11-8,43,37,30,29,26,22,70,61,51,30.31,30.19,30.05,10,10,10,25,11,33,T,6,,285
2013-11-9,52,39,26,29,25,22,85,58,30,30.32,30.16,29.96,10,10,9,23,9,31,0.00,0,,214
2013-11-10,52,46,39,35,30,26,64,51,38,30.24,30.06,29.94,10,10,10,29,17,41,0.00,7,,280
2013-11-11,52,41,30,39,28,15,85,55,24,30.27,30.15,30.03,10,10,10,24,10,33,T,5,Rain,228
2013-11-12,42,35,27,39,25,14,93,68,43,30.43,30.21,30.01,10,7,0,22,12,31,0.06,7,Fog-Rain-Snow,332
2013-11-13,36,32,27,21,20,18,75,61,47,30.50,30.42,30.36,10,10,7,20,11,25,T,5,Snow,291
2013-11-14,54,41,27,19,14,6,69,42,15,30.34,30.27,30.21,10,10,10,22,12,26,0.00,0,,228
2013-11-15,56,47,38,41,22,13,76,49,22,30.24,30.20,30.15,10,10,10,21,10,27,0.03,2,Rain,212
2013-11-16,58,49,39,48,43,39,93,76,59,30.29,30.22,30.17,10,9,3,14,6,19,0.01,4,Rain,179
2013-11-17,58,53,48,55,52,48,100,93,86,30.16,29.94,29.61,10,9,1,44,10,55,0.37,8,Rain,180
2013-11-18,56,48,39,53,34,26,77,56,35,29.97,29.77,29.65,10,9,1,36,19,46,0.05,4,Rain,267
2013-11-19,39,33,26,27,24,20,75,67,59,30.41,30.21,29.99,10,10,10,26,12,36,0.00,6,,329
2013-11-20,43,33,23,24,18,12,81,57,33,30.57,30.50,30.42,10,10,7,13,5,16,0.00,0,,110
2013-11-21,46,37,27,36,31,19,85,67,49,30.55,30.46,30.34,10,10,10,15,6,20,0.00,4,,183
2013-11-22,54,47,40,51,43,35,93,85,76,30.31,30.14,30.04,10,9,4,26,7,35,0.02,8,Rain,272
2013-11-23,40,30,20,33,21,8,85,65,44,30.24,30.15,30.06,10,9,2,31,15,40,T,6,Rain-Snow,307
2013-11-24,25,20,15,15,12,6,84,69,54,30.50,30.35,30.22,10,5,0,26,13,37,T,6,Fog-Snow,307
2013-11-25,32,22,12,14,9,5,73,56,39,30.51,30.40,30.27,10,10,10,13,7,16,0.00,2,,210
2013-11-26,34,32,29,33,29,17,100,75,49,30.25,30.01,29.64,10,3,1,17,4,22,1.34,8,Rain-Snow,64
2013-11-27,35,29,23,34,27,15,100,85,69,30.02,29.70,29.56,10,6,2,26,14,37,0.04,8,Rain-Snow,312
2013-11-28,27,23,19,22,16,11,81,69,57,30.45,30.27,30.04,10,10,7,25,9,37,T,6,Snow,271
2013-11-29,32,26,20,23,21,18,100,82,63,30.71,30.60,30.45,10,9,3,13,3,16,0.00,5,,313
2013-11-30,31,24,17,21,19,14,92,78,63,30.71,30.55,30.34,10,10,6,15,6,20,0.00,0,,184